RH
6 6 5 4 16 26 10 14 15 19 26 21 23 22 24 27 30 31 28 19 18 20 16 8 12 16 17 13 6 3 3 3 4 4 5 5 5 6 8 10 12 14 14
7 7 7 7 8 16 26 44 25 16 17 24 25 18 17 20 21 23 27 33 31 18 18 18 9 11 17 18 16 9 5 3 4 4 4 5 5 6 7 9 10 12 15
8 8 8 8 9 13 15 26 27 30 26 22 21 23 24 20 18 16 16 16 20 30 27 16 17 13 9 15 18 18 12 7 5 4 4 5 6 7 8 8 9 11 13
10 10 10 10 10 12 20 29 38 31 24 16 15 18 19 20 22 22 20 18 19 16 18 25 22 16 16 9 12 17 19 16 10 8 6 6 6 8 9 9 9 10 12
11 10 10 10 12 15 18 19 28 37 29 24 21 17 21 26 26 23 20 21 21 20 20 17 14 19 18 16 13 8 14 18 19 16 11 10 10 9 10 11 10 11 12
11 11 11 10 11 11 12 28 29 29 30 27 26 26 24 19 17 20 18 16 18 20 20 20 18 14 12 17 17 16 9 9 16 18 19 16 14 13 13 13 13 13 13
11 11 11 11 11 11 12 19 31 47 41 29 23 23 32 34 28 24 17 12 11 13 15 17 18 18 13 11 14 18 18 16 8 10 16 19 19 18 17 16 17 18 18
10 11 11 12 12 11 11 12 14 26 37 44 38 34 34 32 40 36 34 28 18 12 9 11 15 17 17 15 12 13 19 22 22 16 8 10 16 18 19 20 20 20 20
12 12 12 12 12 12 12 11 12 13 17 38 33 37 34 28 22 22 32 36 29 33 28 20 14 12 18 20 18 14 14 18 25 25 23 16 9 9 11 14 17 18 18
13 12 12 13 12 13 12 12 12 12 16 20 18 25 20 22 22 20 14 16 24 21 30 45 39 24 19 18 22 20 17 17 21 27 31 28 26 21 12 9 9 10 11
16 15 14 14 15 15 14 14 14 13 12 13 16 26 21 17 14 15 19 13 11 16 22 27 37 42 27 17 17 22 21 18 17 19 22 28 32 32 30 29 27 23 18
21 19 18 17 18 18 17 16 16 17 17 17 16 16 28 38 38 30 21 14 12 12 12 22 34 32 38 38 24 15 20 24 25 24 25 24 25 25 30 34 32 31 31
16 14 13 13 13 13 12 12 14 15 16 18 19 20 20 20 36 45 41 30 23 15 12 13 19 33 34 34 40 40 30 11 9 17 27 32 33 36 38 41 38 36 36
6 5 4 4 4 4 4 4 4 4 4 4 5 7 10 14 19 22 30 34 42 34 22 14 14 17 24 31 33 36 43 40 31 17 14 22 26 28 38 45 52 52 50
4 4 4 4 4 4 4 4 4 4 4 5 5 5 5 4 4 5 12 24 33 38 44 34 20 16 15 16 19 23 35 38 39 37 32 30 31 28 24 23 24 29 36
4 4 4 4 4 4 4 4 5 5 5 6 6 7 8 8 8 7 6 12 8 25 34 43 46 40 27 15 14 17 27 38 43 40 33 30 26 27 29 26 20 18 19
6 6 6 8 9 9 9 10 10 10 10 10 11 13 12 11 10 10 11 11 9 10 15 23 31 47 47 41 25 17 16 18 24 38 43 39 36 26 24 23 24 20 18
15 14 13 13 13 11 10 11 12 13 14 16 17 16 15 16 17 16 14 13 14 16 15 15 15 25 41 50 48 39 31 27 22 23 25 32 43 51 42 35 32 28 22
19 20 20 20 21 20 20 19 19 19 19 19 20 22 22 22 22 22 22 20 20 18 18 18 18 25 27 41 57 56 53 63 57 51 36 33 32 42 56 64 69 69 64
23 22 22 23 24 24 24 24 23 23 24 26 26 27 28 28 28 28 27 27 27 26 24 22 20 23 27 29 29 59 67 62 70 74 71 51 58 68 54 42 41 35 40
28 30 30 31 28 25 25 26 26 26 26 24 23 22 23 23 22 22 21 21 21 22 24 27 26 24 29 35 30 30 46 76 82 82 86 80 59 61 45 43 36 28 28
32 28 24 23 21 20 19 20 19 21 24 24 23 21 19 16 12 10 10 9 9 10 12 16 22 25 26 30 40 38 39 42 56 89 96 96 89 83 82 73 78 54 48
21 19 17 16 14 14 13 13 13 13 12 11 9 8 7 6 6 13 19 18 16 16 16 12 8 11 19 25 34 55 50 44 49 68 86 96 96 95 96 96 88 89 76
19 17 14 10 8 7 6 8 13 15 11 12 15 22 32 33 30 27 25 23 22 23 25 27 28 18 8 10 22 32 42 47 85 49 65 95 82 80 96 96 96 96 93
8 10 16 29 41 37 35 33 34 34 35 36 33 33 35 32 26 25 20 12 8 6 10 20 32 52 40 12 10 18 28 42 53 96 60 54 100 98 97 96 97 96 96
37 42 39 41 35 25 21 13 12 25 34 33 34 33 34 29 20 14 11 10 9 6 6 9 27 72 89 64 16 12 14 27 34 56 49 42 53 96 92 96 96 96 96
Wind_Speed
6 6 5 5 7 8 11 16 15 14 11 9 9 9 8 7 5 2 2 2 5 6 4 4 4 4 5 5 6 6 8 7 6 6 4 4 3 3 1 1 2 2 3
7 8 6 6 8 9 9 8 15 17 16 14 13 12 11 10 9 8 7 6 4 5 8 7 6 7 5 5 5 7 7 8 8 6 5 5 5 5 3 3 2 2 1
11 10 10 9 9 10 9 9 8 9 17 19 18 17 16 15 14 13 11 10 9 8 7 8 10 8 9 9 7 7 8 8 8 8 7 6 6 6 5 5 5 5 5
13 12 13 11 12 12 12 12 12 10 9 9 15 21 21 20 19 18 17 16 15 13 12 11 10 11 12 11 12 11 9 9 9 8 8 8 8 8 7 7 7 7 7
16 16 15 14 14 15 16 15 14 15 13 12 12 12 14 19 23 22 22 21 21 20 18 16 15 14 13 14 14 15 15 13 11 10 10 10 10 10 10 10 10 9 9
20 20 19 18 17 18 18 18 18 18 17 16 16 15 15 15 15 17 20 23 24 24 23 22 21 19 17 16 16 18 16 17 17 16 14 13 13 13 13 12 12 12 11
24 25 24 23 22 22 21 21 19 20 21 21 20 20 18 18 18 18 18 18 19 23 26 27 27 25 23 21 21 20 19 19 19 20 20 18 17 17 16 16 16 16 15
29 29 28 28 28 27 26 25 23 22 23 23 23 24 24 22 22 21 20 21 21 19 20 25 29 30 29 27 26 25 23 21 21 21 21 23 23 22 21 21 20 20 20
34 34 33 33 33 33 32 31 30 27 26 27 28 27 27 27 28 27 24 23 23 22 23 23 23 27 32 32 31 30 28 26 24 23 23 23 23 25 25 25 25 25 25
37 38 37 37 37 36 36 36 35 33 31 31 32 31 31 31 31 30 30 28 26 24 24 25 25 26 28 31 34 34 31 30 28 27 25 25 25 26 25 26 27 27 28
38 39 39 38 38 38 37 37 37 37 36 34 33 33 33 33 34 34 34 33 32 30 28 28 27 28 28 27 29 33 35 33 31 30 30 29 29 29 29 29 29 28 28
36 36 37 38 38 38 38 37 38 37 37 37 37 36 35 35 36 36 36 37 36 36 34 33 31 30 30 30 28 27 31 36 37 36 34 33 33 32 32 32 32 31 31
30 29 28 29 30 30 30 30 32 33 34 35 36 37 38 37 38 38 39 39 39 39 38 38 37 34 33 32 30 30 30 29 31 34 37 38 38 37 36 34 34 34 33
25 25 25 24 25 25 26 27 28 27 27 29 31 32 33 35 38 40 42 42 42 42 41 41 42 41 40 38 35 33 32 31 32 32 33 34 34 35 38 38 37 36 35
26 28 29 29 30 30 30 31 32 34 34 34 33 33 33 33 32 32 36 42 45 45 44 45 45 44 45 45 43 39 36 35 35 35 34 33 33 33 33 33 35 37 38
31 33 35 36 37 38 38 39 38 38 39 39 39 39 39 38 39 38 37 36 37 42 47 48 48 49 48 48 47 45 42 40 38 38 37 37 37 36 35 34 33 32 31
35 37 39 40 41 42 42 43 43 44 44 44 43 43 44 44 44 45 44 43 43 43 43 44 50 53 51 50 49 49 48 47 45 43 42 43 42 40 39 38 37 35 35
37 39 41 43 45 46 48 48 49 50 50 50 50 50 51 51 51 51 51 51 50 50 50 49 49 48 52 55 53 52 52 52 51 49 48 47 47 44 43 42 42 42 41
42 43 45 47 48 49 51 52 53 53 54 55 55 56 56 56 56 55 54 55 56 55 55 56 56 55 53 52 55 57 55 54 53 53 51 52 50 51 49 47 46 45 46
46 47 49 50 51 52 54 55 57 59 61 61 61 59 58 58 58 59 59 59 60 61 61 60 60 60 58 57 57 55 58 58 57 57 54 55 52 52 51 50 52 51 49
51 52 51 51 51 51 51 52 53 54 56 57 58 59 59 59 61 61 61 61 61 61 64 65 66 65 64 62 62 60 58 56 58 59 58 56 56 56 56 57 56 55 54
48 48 48 49 51 51 52 53 54 54 54 56 58 59 59 60 61 63 65 67 67 68 69 69 71 71 70 67 66 66 63 61 58 56 58 57 58 59 60 56 56 56 55
46 48 50 52 54 55 55 55 57 58 58 59 60 62 63 63 62 55 58 58 59 62 66 74 79 79 77 74 71 71 67 64 60 58 57 56 56 57 61 62 60 60 55
45 47 50 53 56 56 53 48 45 45 45 44 43 42 44 47 50 54 53 55 60 66 71 74 76 80 82 80 78 75 71 67 57 66 58 52 59 61 63 58 58 61 56
46 45 42 40 37 33 36 39 40 40 40 41 43 45 46 45 45 48 51 53 58 67 77 80 80 80 80 80 80 78 77 72 67 60 61 62 52 63 60 61 49 53 47
31 33 35 36 37 35 36 36 37 39 40 44 45 45 44 45 43 42 38 41 49 59 66 68 72 74 75 76 76 78 77 75 73 71 67 65 61 50 58 55 54 57 64
Wind_Direction
251 265 269 281 286 282 276 256 254 258 256 257 263 267 268 267 269 279 311 328 280 287 308 297 282 304 322 325 315 296 278 272 275 285 292 291 287 285 283 92 87 81 75
254 260 269 277 287 291 290 289 260 252 255 255 256 261 267 271 276 277 277 283 291 293 274 277 275 270 282 301 299 299 287 272 264 261 267 276 279 276 284 287 274 265 245
269 270 274 276 283 289 291 288 294 281 258 257 257 258 257 259 263 268 273 272 271 272 280 273 270 270 267 270 282 288 289 287 283 277 271 269 272 273 275 268 268 271 273
276 273 274 276 276 280 286 285 287 290 294 287 268 262 263 262 260 263 267 272 273 273 269 271 274 271 266 267 264 269 273 276 275 277 272 266 264 269 272 271 269 268 271
273 271 270 273 279 281 281 283 284 286 288 291 289 290 282 270 265 263 265 267 268 271 272 271 270 268 269 265 265 262 263 267 269 267 265 263 261 261 264 267 268 269 271
271 274 274 273 276 279 281 282 280 281 284 286 287 286 285 285 282 276 270 267 268 268 268 268 269 268 264 263 263 261 263 261 261 262 261 261 261 262 263 264 267 269 268
269 270 273 274 275 276 278 280 279 277 279 282 281 283 283 282 282 279 277 275 270 266 264 264 264 265 264 260 259 257 256 258 261 259 260 260 260 260 261 262 263 264 265
269 271 273 276 276 275 277 277 276 276 278 280 283 281 281 282 281 278 275 275 273 274 274 266 261 260 260 260 259 257 256 253 254 258 258 257 256 257 258 259 260 261 262
270 272 273 274 275 276 276 277 277 273 271 273 273 275 275 276 275 275 275 274 275 275 272 272 272 267 260 257 256 257 257 254 252 253 255 257 259 258 258 258 259 260 263
270 273 275 276 277 279 279 279 277 276 272 269 269 270 270 271 270 272 271 272 273 272 273 273 271 269 266 263 259 258 255 253 252 251 251 253 256 258 259 260 261 262 263
271 270 270 271 272 272 273 274 275 274 273 270 266 266 267 268 270 271 272 271 270 269 270 269 270 272 270 269 265 258 259 258 259 258 256 254 254 256 257 257 259 260 262
269 267 268 268 270 271 272 271 271 272 273 271 269 266 264 264 266 267 270 271 270 268 267 267 268 267 270 272 272 268 262 260 259 259 260 261 261 262 263 264 264 265 266
266 264 261 262 264 266 269 270 270 269 267 267 267 268 267 264 263 265 265 266 268 269 267 265 264 264 265 267 269 269 269 269 266 261 259 259 260 262 263 265 267 267 267
262 264 266 266 267 268 269 271 273 274 275 276 276 275 273 270 265 263 264 263 263 266 267 266 265 262 261 261 262 264 266 268 269 267 264 261 259 261 262 263 263 265 267
270 273 274 274 274 274 272 273 274 277 279 279 277 277 277 278 276 273 269 265 264 262 263 264 264 263 262 261 259 258 259 262 266 268 267 266 265 264 263 264 266 267 268
274 276 278 279 279 280 281 280 280 279 278 278 279 278 276 276 275 274 272 270 270 269 264 261 261 261 261 262 263 260 256 255 257 260 263 266 267 267 266 264 265 266 267
272 274 277 279 281 282 283 283 283 281 280 280 279 279 279 278 276 275 274 272 271 268 268 268 265 262 261 260 260 262 260 258 255 256 258 261 263 265 265 268 267 266 265
273 275 276 277 280 280 279 280 280 281 282 282 281 279 278 277 277 276 275 275 274 274 273 269 267 267 266 262 260 259 260 259 259 258 257 258 261 261 261 262 265 267 267
278 280 281 282 283 283 283 282 281 280 279 277 278 278 277 276 275 274 273 273 272 271 271 272 271 267 265 265 263 261 258 257 259 259 259 260 258 258 259 261 261 262 265
282 281 280 279 278 278 277 277 277 277 277 277 277 277 276 276 274 273 272 269 269 269 268 267 266 266 266 265 263 262 261 259 258 259 259 260 260 260 261 262 263 264 263
280 280 280 281 281 280 278 277 276 276 275 275 274 274 274 273 273 273 272 271 269 267 267 267 265 264 263 262 262 262 261 260 260 260 260 259 260 261 261 260 261 263 263
283 284 284 284 283 281 280 279 277 275 273 272 273 273 273 274 274 274 274 273 272 270 268 266 265 264 262 261 260 260 259 258 258 261 261 261 260 261 261 261 263 261 262
283 284 285 284 283 282 282 280 278 276 274 273 272 273 274 276 277 279 276 274 273 273 272 269 265 263 261 259 258 258 258 259 257 257 261 265 264 264 263 262 258 259 260
286 287 286 286 286 286 286 284 282 280 278 276 275 272 273 276 274 279 282 280 277 275 272 268 265 263 260 259 258 256 256 257 262 259 253 259 266 264 266 253 260 257 255
289 290 290 289 288 285 287 287 283 282 277 275 277 275 280 279 278 277 277 278 279 273 270 267 262 260 258 257 254 253 253 253 252 256 254 251 257 257 263 260 253 250 256
288 291 293 287 286 287 287 288 289 286 280 275 275 273 274 275 275 280 290 298 302 294 280 269 265 262 260 257 254 251 252 252 251 253 254 253 257 270 259 251 257 257 254